Torna al catalogo

OPS 9794

NAVSTAR 8

LostNavigazioneMEO
NORAD 14189·PAYLOAD·🇺🇸 United States

Lanciato Jul 14, 1983 da Vandenberg Space Force Base

Loading…

Prossimi Passaggi (prossime 24 ore)

TLE

ObsoletoSource: Space-Track

Epoca: Aug 4, 2026, 19:56 UTC

1 14189U 83072A   26216.83057898 -.00000004  00000-0  00000+0 0  9992
2 14189  63.4687  67.4860 0223705  56.9299 170.0740  1.91719251227656

Traccia OPS 9794 in tempo reale con AllMySat

Download on the App Store